Theta_e
297 298 298 298 297 298 298 298 298 299 298 299 298 298 298 297 298 298 296 297 298 297 297 297 297 296 296 296 295 295 295 295 295 294 294 293 293 293 292 292 291 292 291 291 292 292 291 291 291 291 291 290 290 290 289 289 289 289 288 287 287 287 287 286 285 285 287 288 289 289 289 289 289 290 290 290 290 291 292 289 289 289 289 289 289
298 298 298 299 298 298 298 298 299 298 298 298 298 298 298 298 298 296 296 297 297 297 297 297 297 297 296 296 296 296 295 295 295 294 294 293 293 294 293 292 292 292 291 291 291 292 292 291 291 291 291 290 290 290 290 289 289 288 288 288 288 287 288 287 286 285 285 286 287 288 288 289 290 289 290 289 289 289 289 288 289 288 289 289 288
298 298 298 298 298 298 298 298 298 297 297 298 297 298 297 297 296 296 297 297 296 297 297 297 297 296 296 296 296 296 296 295 295 295 294 294 293 293 293 293 292 292 291 291 292 292 291 291 291 291 292 290 290 291 290 290 289 289 289 289 288 288 288 288 287 285 285 286 288 287 287 288 288 289 289 290 290 290 289 288 288 289 289 289 289
297 297 297 297 297 297 297 297 297 297 297 297 297 297 297 297 296 297 297 297 297 297 296 297 296 296 296 296 296 296 296 295 295 295 295 294 294 294 293 293 293 293 292 292 292 292 291 291 291 292 291 290 290 290 291 290 290 289 289 289 289 288 288 288 288 287 286 286 286 287 288 288 288 288 289 290 289 289 289 290 289 289 289 290 289
296 296 295 296 296 296 296 296 296 296 296 297 297 297 297 297 297 297 297 297 297 297 296 296 296 296 296 296 296 296 296 296 295 295 295 295 295 294 294 293 293 293 293 293 293 292 292 292 292 292 291 291 291 290 291 290 290 290 289 289 289 289 289 289 288 288 286 286 287 287 287 287 288 288 288 288 288 288 288 289 289 289 289 290 290
295 295 295 295 295 295 295 295 295 296 296 296 296 297 297 297 297 297 296 297 297 296 296 296 296 296 296 296 296 296 296 295 295 295 295 295 295 294 294 294 294 293 293 293 293 293 293 293 293 292 292 291 291 291 291 290 290 290 289 289 289 289 289 288 288 288 287 287 286 287 286 287 286 286 287 288 288 287 286 287 287 288 288 288 289
295 294 295 293 294 294 294 295 295 295 296 296 296 296 296 296 296 296 296 296 296 296 295 296 296 296 297 297 296 296 296 295 295 295 295 295 294 294 294 294 294 294 294 294 294 293 293 293 293 293 292 292 292 292 291 291 291 290 290 290 290 289 288 288 288 287 287 286 287 287 287 287 287 287 287 287 287 288 287 285 285 287 287 288 288
294 294 293 293 293 294 294 294 295 295 296 296 296 296 296 295 295 295 294 295 295 295 295 296 296 296 296 296 296 296 295 295 295 295 295 295 294 294 294 294 293 293 293 293 293 293 294 294 293 294 293 293 293 293 292 292 291 291 291 290 290 289 288 288 287 287 286 286 286 286 286 286 285 287 285 285 285 285 286 287 285 286 286 287 288
293 293 292 292 293 293 294 294 295 295 294 295 294 294 294 294 294 294 293 294 295 295 295 295 295 295 295 295 295 295 295 296 296 296 295 295 294 294 294 294 293 293 293 293 293 293 293 293 293 294 294 293 292 293 293 293 293 291 291 291 290 289 289 288 288 287 286 286 286 286 286 285 285 285 284 284 285 286 286 286 286 286 287 285 285
292 292 292 292 293 293 294 293 294 293 293 293 293 293 293 293 293 292 293 293 293 294 294 294 294 294 294 294 294 295 295 296 294 294 294 295 294 295 294 294 293 293 293 292 293 293 293 293 294 292 291 291 291 291 292 292 292 293 293 292 291 290 289 288 288 287 287 286 286 286 285 285 286 285 285 286 287 286 285 284 284 286 284 284 285
292 291 292 292 292 292 292 293 293 292 293 292 292 292 293 292 292 291 292 292 292 292 292 292 292 292 292 293 293 294 295 295 294 295 295 295 294 294 293 293 293 293 293 292 292 292 293 293 293 292 291 291 291 291 292 292 292 292 292 293 292 292 290 289 289 288 287 287 287 286 286 286 286 286 286 287 286 286 286 286 285 285 284 283 283
292 292 292 292 292 292 292 292 292 292 292 292 292 292 291 291 291 291 291 291 292 291 290 291 291 291 292 292 292 293 294 293 294 295 295 295 294 294 293 293 293 292 292 292 292 292 292 293 293 294 293 293 293 292 291 291 292 292 292 292 292 292 293 292 290 289 288 287 287 287 287 286 287 287 286 286 286 286 286 286 285 285 284 283 284
291 291 291 291 292 292 292 292 292 292 292 292 292 291 291 291 291 291 291 291 290 290 291 291 291 291 291 291 291 292 292 293 294 294 294 294 295 294 293 293 292 292 292 292 292 292 292 292 292 293 294 291 291 292 292 292 291 291 291 291 291 292 293 293 293 292 292 289 289 288 288 288 287 287 288 288 288 286 286 285 285 285 285 285 285
291 291 291 291 291 291 291 291 291 291 291 291 291 291 291 290 291 291 290 290 290 290 290 290 290 290 290 290 291 291 291 292 293 294 294 294 294 294 293 292 292 292 291 291 292 291 291 291 291 291 292 293 293 292 292 292 292 291 290 290 290 290 291 292 292 291 292 292 291 289 290 290 289 290 290 289 288 286 286 285 286 285 285 285 287
290 290 291 291 291 291 291 291 291 291 291 290 290 290 290 290 290 291 290 290 290 290 290 290 290 290 290 290 290 291 292 292 293 293 293 294 294 293 292 292 291 291 291 291 291 291 291 291 291 291 291 292 293 292 292 292 291 291 290 289 289 289 290 290 291 292 292 292 292 291 292 292 291 291 291 290 290 290 289 288 288 287 287 287 286
290 290 290 290 290 291 290 290 290 290 290 290 289 289 290 290 289 290 289 290 290 290 290 289 289 290 290 290 290 290 291 292 292 292 293 293 294 292 291 290 290 290 290 290 291 291 291 291 291 291 291 291 291 292 292 292 292 290 290 290 289 289 289 290 291 292 292 292 292 292 292 293 293 292 292 291 290 290 290 289 286 285 285 284 284
289 289 289 289 290 290 290 289 289 289 289 289 288 289 289 289 289 289 288 289 289 289 289 289 290 290 289 289 289 289 290 291 291 292 292 293 292 291 290 290 289 289 289 290 290 290 290 290 291 291 291 291 291 292 293 292 291 291 290 290 290 290 290 290 291 291 291 292 292 293 293 293 294 294 294 294 291 290 287 286 285 285 284 283 284
288 288 288 288 289 289 289 289 288 288 288 288 288 289 289 289 289 289 288 288 288 289 289 289 289 289 288 288 288 288 289 289 290 291 291 292 291 290 290 289 288 288 288 289 289 289 290 289 289 290 290 290 291 292 293 291 291 291 290 289 289 289 290 291 289 289 290 291 291 291 291 292 292 293 293 293 293 291 287 286 287 286 285 285 284
287 287 287 287 288 288 288 288 288 288 287 288 288 288 288 288 288 289 288 288 288 289 288 288 288 289 289 288 287 288 288 288 290 291 291 292 291 290 289 288 287 287 287 288 288 288 288 288 288 288 289 290 291 292 292 291 290 290 290 289 289 289 290 291 290 289 288 287 288 288 288 289 289 290 290 291 292 291 290 288 288 286 285 285 285
286 286 286 286 286 286 287 287 287 287 287 288 288 288 288 288 288 288 288 288 288 288 288 288 288 288 288 288 289 289 288 289 289 290 291 291 292 290 289 288 287 287 287 287 287 288 288 288 289 290 291 292 292 292 292 292 291 291 290 289 288 288 291 290 290 290 290 289 288 288 287 288 288 288 288 288 289 289 290 289 288 287 286 286 286
283 283 283 283 284 285 286 286 286 287 288 287 287 287 287 287 287 287 287 287 287 287 287 287 287 287 288 288 288 288 289 288 289 290 291 291 292 291 289 288 288 287 287 287 287 287 287 288 288 289 291 291 291 292 292 292 292 291 291 290 290 291 291 290 289 288 289 289 289 289 288 288 287 288 287 287 287 288 289 289 289 288 287 286 286
281 281 281 282 283 284 284 286 286 287 287 286 286 286 286 286 286 286 286 286 286 285 286 286 286 286 287 287 287 288 288 287 288 289 290 291 291 291 289 289 289 288 288 288 288 287 288 288 288 289 290 290 290 291 292 292 292 291 290 291 292 292 290 290 290 289 289 288 288 288 288 288 287 287 287 287 287 287 288 288 289 289 289 289 288
279 279 280 281 282 283 283 284 285 286 286 285 285 284 283 283 283 284 284 283 283 283 284 284 284 285 285 286 286 287 287 287 287 288 288 290 290 291 291 290 291 289 288 287 288 288 288 288 288 288 289 289 290 291 291 291 290 290 291 292 291 291 290 289 289 288 288 288 288 287 288 288 288 287 287 287 287 287 287 288 288 289 289 289 289
279 278 279 279 281 281 281 282 283 284 284 284 284 282 280 281 281 281 281 281 281 281 281 282 283 283 283 284 284 284 285 286 286 286 287 288 290 290 291 291 291 289 289 288 288 288 288 288 288 289 289 289 290 290 290 290 289 290 291 291 290 289 289 289 288 288 288 288 287 287 287 288 288 288 288 288 288 288 287 288 288 288 288 288 289
278 277 277 278 279 279 279 280 280 281 282 283 282 280 279 279 279 279 279 279 279 279 280 281 282 282 281 281 280 281 283 284 285 285 286 286 288 289 290 290 290 290 288 287 288 288 288 289 289 289 288 289 289 289 289 288 289 289 289 289 288 288 288 288 288 288 287 287 287 287 287 288 289 289 289 289 288 288 287 287 287 288 288 288 288
276 276 276 277 278 278 277 278 278 279 280 281 281 280 279 278 278 278 278 278 278 278 279 280 280 279 278 278 278 280 281 282 282 283 285 285 286 287 288 287 286 286 286 287 287 288 288 288 288 288 287 287 287 287 287 287 287 287 287 287 287 287 287 287 287 287 286 287 287 287 288 289 289 289 289 289 288 287 287 286 286 286 286 286 286
275 275 275 276 276 276 276 276 277 277 278 279 279 279 279 278 277 277 277 277 276 277 277 278 277 277 277 277 278 278 278 280 281 282 284 284 284 284 284 284 285 286 286 286 286 286 287 286 287 287 287 286 286 286 286 287 287 287 287 287 287 287 287 287 287 287 286 287 287 287 288 289 289 288 288 288 288 288 288 287 286 286 286 286 285
274 274 274 275 274 275 275 276 276 275 276 277 277 277 278 277 276 276 275 275 274 274 275 276 275 275 276 276 277 277 278 279 280 281 281 281 281 281 282 284 284 283 282 283 284 285 285 285 286 286 286 286 286 286 286 287 287 287 287 287 287 287 287 287 287 287 287 288 288 288 288 288 288 288 288 288 288 288 288 287 286 286 286 286 284
274 273 273 273 273 274 274 274 274 274 274 274 275 276 276 276 276 276 276 276 276 275 274 275 276 276 276 276 276 276 277 277 278 281 281 282 281 281 280 278 278 278 280 284 283 283 284 283 283 284 284 284 285 285 285 286 286 287 287 287 287 287 287 286 286 286 286 287 286 287 287 287 287 287 287 287 287 288 288 287 287 286 286 286 284
272 271 272 271 272 272 272 272 272 273 272 272 273 273 277 278 277 275 274 276 277 278 277 275 275 276 276 276 278 276 275 276 279 279 279 281 281 281 280 281 281 280 282 283 282 280 278 279 279 281 282 283 284 284 285 285 286 286 286 286 287 287 286 287 286 286 287 286 286 286 286 287 286 287 287 286 287 287 288 287 286 287 286 285 284
271 270 270 270 270 271 271 270 271 271 271 271 271 271 271 273 275 276 276 275 276 276 277 277 278 279 277 274 275 277 278 278 278 278 279 279 279 279 278 279 280 280 281 279 277 276 276 277 279 281 282 283 283 284 285 285 285 285 286 286 286 286 286 286 286 287 286 286 286 286 286 286 286 286 286 286 286 287 287 287 287 286 286 285 284
269 268 268 269 269 270 270 270 270 270 269 269 269 269 269 269 270 273 275 275 275 275 276 277 277 276 276 275 274 273 275 276 277 277 276 276 275 277 278 278 279 280 280 281 277 276 277 278 278 280 282 282 283 284 285 285 285 285 285 285 286 286 286 286 287 287 286 286 286 286 286 286 286 286 286 286 286 286 286 286 286 286 285 286 285
267 267 267 268 268 268 268 268 268 268 268 267 267 268 268 267 267 268 270 273 274 274 275 275 274 273 274 275 276 275 274 274 275 276 274 274 276 274 277 279 279 280 281 278 276 276 277 279 280 282 283 282 283 284 284 285 285 285 286 285 285 286 287 287 287 287 286 287 286 286 286 286 286 286 286 286 286 285 286 286 286 286 285 285 284
266 266 266 266 266 266 267 267 267 267 267 267 267 267 267 267 267 267 267 267 269 271 271 271 270 271 272 273 272 271 273 274 273 272 273 273 275 278 278 276 278 279 278 275 276 277 278 278 278 277 278 279 279 280 282 284 285 285 285 285 286 286 287 287 287 286 286 287 286 286 286 286 286 286 285 286 286 286 286 286 286 285 285 285 284
265 265 266 266 266 266 266 266 266 266 266 266 266 266 266 267 267 267 266 266 266 265 264 266 268 269 267 267 269 271 272 273 274 274 273 275 274 274 274 270 269 269 270 270 271 271 272 273 275 276 278 279 280 281 281 281 282 283 283 284 284 285 285 286 286 286 286 286 286 286 286 286 286 286 286 285 285 285 285 285 285 286 285 285 284
263 263 264 264 264 264 264 265 265 265 265 265 266 266 266 265 265 265 265 265 264 263 263 264 265 266 265 265 267 269 270 269 269 270 271 271 271 272 266 265 266 266 267 268 269 270 271 271 271 273 275 276 276 277 276 277 277 278 278 277 276 277 279 281 284 285 286 286 286 286 286 286 286 286 286 285 285 285 285 285 285 285 285 285 285
262 262 262 262 263 263 263 264 264 264 265 265 264 264 263 263 263 262 262 262 263 263 263 263 262 262 264 266 267 265 264 266 268 268 269 269 271 268 266 266 265 265 265 265 266 268 269 269 270 269 269 269 269 269 270 271 272 272 273 274 275 275 276 276 276 276 276 278 281 284 286 286 286 286 285 284 285 285 285 285 285 285 285 284 282
261 261 261 261 262 262 262 262 263 264 263 262 262 261 261 260 260 261 261 261 261 261 260 260 261 261 261 261 262 262 262 263 264 264 265 266 266 264 263 262 262 262 263 265 266 264 264 265 266 265 265 265 265 267 268 269 269 270 271 271 272 273 275 275 275 275 275 276 277 278 281 284 286 286 285 285 284 285 285 285 285 285 284 283 283
260 261 261 262 262 261 261 260 260 260 260 260 259 259 259 259 259 259 259 259 259 259 259 260 260 259 258 259 258 260 261 259 259 259 260 261 261 261 260 261 262 262 261 260 262 262 261 261 262 261 261 262 263 264 266 268 269 269 270 271 272 272 272 272 272 273 273 274 275 275 275 276 278 282 285 285 285 285 285 285 284 284 284 283 283
259 259 260 260 259 259 259 258 258 258 258 258 257 258 258 257 257 257 257 257 257 258 258 257 256 256 257 258 258 258 257 257 257 257 257 258 258 259 260 260 259 258 258 258 258 259 259 258 258 259 259 260 262 264 263 262 262 264 265 266 267 268 269 270 270 271 271 272 272 273 274 274 276 277 278 279 283 285 285 284 284 284 284 284 282
258 258 258 258 258 257 256 256 256 256 256 256 256 256 255 256 256 257 257 256 256 256 255 255 255 256 257 258 258 258 256 255 255 256 256 256 256 256 257 257 257 256 257 257 258 257 257 257 257 257 259 260 260 258 258 260 261 263 265 266 266 267 268 269 269 269 269 270 271 271 272 273 274 274 275 276 279 282 284 284 284 284 283 282 282
256 255 255 255 255 255 255 255 255 256 255 255 255 255 255 255 255 255 255 255 254 254 254 254 255 255 257 257 257 257 255 255 255 255 255 255 255 255 255 255 256 256 256 256 256 256 256 256 257 257 256 256 257 258 259 260 261 261 261 261 263 265 266 266 266 267 267 268 268 270 271 272 272 273 274 275 276 277 279 282 283 283 282 280 274
255 254 254 254 254 254 254 254 254 254 254 254 254 255 255 254 254 254 254 254 254 254 253 253 253 254 255 256 256 256 254 254 255 254 254 254 254 254 254 254 254 255 255 255 256 256 256 255 255 255 256 256 256 257 257 257 258 259 259 259 260 262 263 263 263 264 264 265 266 267 268 269 271 272 273 274 275 275 276 277 278 279 276 273 269
253 253 253 253 253 253 253 253 253 253 253 254 254 254 254 253 253 253 253 253 253 253 253 253 253 253 253 254 254 253 253 253 252 252 253 253 253 253 253 253 253 254 254 254 254 254 254 254 254 254 255 255 256 256 257 257 258 258 259 260 261 260 259 260 260 260 261 261 262 264 265 267 268 270 272 273 274 274 274 274 272 270 268 267 265
252 252 252 252 252 252 252 253 253 252 253 253 252 252 253 252 252 252 252 252 252 252 252 252 253 252 252 252 252 252 252 252 252 252 252 252 252 252 252 253 252 252 252 253 253 253 253 253 253 253 254 255 255 256 256 257 257 258 257 257 256 257 257 257 258 259 259 260 260 261 264 267 268 270 271 271 272 272 272 272 270 266 265 264 263
252 251 251 251 251 251 252 251 252 252 251 251 251 251 251 251 251 251 252 252 252 252 251 251 251 252 251 251 251 252 251 251 251 251 252 252 252 252 252 252 252 252 252 252 252 252 252 253 253 253 253 253 254 255 255 256 256 256 256 256 256 256 257 257 258 259 259 260 261 263 264 265 266 267 266 268 270 270 271 269 267 266 265 264 263
251 251 251 251 251 251 251 251 251 251 251 251 251 251 251 251 251 251 251 251 251 251 251 251 250 250 250 250 251 250 251 251 251 251 251 251 251 251 251 251 251 251 251 252 252 252 252 253 253 253 253 254 254 254 255 255 255 256 256 256 256 256 256 257 258 258 259 260 261 261 261 262 263 265 266 267 267 266 265 265 264 263 262 261 260
250 250 250 251 251 250 250 250 250 251 250 250 250 251 251 251 250 250 250 250 250 250 250 250 250 250 250 250 250 250 250 250 251 251 251 250 250 250 251 250 251 251 251 251 252 252 253 253 253 254 254 254 255 255 255 255 255 255 256 256 256 256 256 257 257 257 258 258 259 260 261 262 263 265 265 265 265 263 262 261 260 260 259 259 259
250 250 250 250 250 250 250 250 250 250 250 250 250 250 250 250 250 250 250 250 250 250 250 249 249 250 250 250 250 250 250 250 250 250 250 250 250 250 250 250 251 251 251 251 252 253 253 254 254 255 255 254 254 254 254 254 254 255 255 255 256 257 257 257 257 258 259 260 261 262 262 263 263 264 263 262 261 261 260 259 258 258 258 258 257
250 250 250 250 250 250 250 250 250 250 250 250 249 249 249 249 249 249 249 249 249 249 249 249 249 249 249 249 249 249 250 250 250 250 250 250 250 250 250 250 250 251 251 252 253 253 254 255 255 255 254 254 254 254 254 254 254 254 255 255 256 256 256 257 257 258 258 259 259 260 261 261 260 259 259 259 259 258 257 257 257 257 257 256 256
250 250 250 250 250 250 250 249 249 249 249 249 249 249 249 249 249 249 249 249 249 249 249 249 249 249 249 249 250 249 249 249 250 250 250 249 250 250 250 250 250 251 251 252 253 253 254 254 254 254 254 254 254 254 254 254 254 255 255 255 255 255 255 255 255 257 257 257 257 257 257 257 257 257 257 257 257 256 256 256 256 256 255 255 255
Wind_Speed
6 6 6 6 6 7 7 6 7 7 6 7 8 9 8 8 8 8 5 7 7 7 7 8 8 8 8 8 9 9 8 9 8 8 8 10 9 10 9 9 10 10 9 10 9 9 10 11 11 11 8 9 9 9 9 10 8 8 8 8 9 8 9 10 12 16 11 7 8 8 6 4 5 8 9 8 7 7 8 8 8 7 8 8 8
5 6 5 5 6 7 6 6 7 6 7 8 8 9 8 8 8 5 7 9 6 8 8 8 7 8 8 9 9 9 9 10 9 8 9 10 10 8 9 10 11 11 9 11 10 10 10 11 12 11 9 11 10 10 10 9 9 9 9 9 10 10 10 10 12 11 18 5 7 6 8 6 11 6 10 9 9 6 9 9 7 8 8 8 8
5 5 5 5 6 6 6 6 6 6 7 7 7 8 8 7 5 6 8 8 6 7 8 8 8 7 8 9 9 9 9 9 9 9 10 11 11 10 9 10 11 12 11 12 11 10 10 11 13 11 8 10 12 11 10 11 10 11 12 10 12 11 10 12 10 13 15 15 7 7 8 7 11 10 8 9 9 9 10 10 9 8 8 9 9
5 5 5 6 6 6 7 7 7 7 7 7 7 7 7 7 6 7 8 7 8 7 7 8 7 8 8 9 9 9 9 9 9 9 11 11 11 12 11 11 11 12 12 12 11 10 12 12 13 11 10 11 12 11 11 10 11 11 12 11 11 12 11 10 13 12 11 13 8 9 7 9 9 8 8 8 9 9 10 9 8 10 10 10 11
5 5 5 6 7 7 7 7 7 7 7 7 8 8 7 7 6 7 7 7 7 7 7 6 7 8 9 10 10 9 10 10 10 11 10 10 11 12 11 11 11 12 12 13 12 12 12 13 13 11 10 12 12 12 11 13 12 11 12 12 11 11 9 10 12 11 12 13 13 8 7 8 8 8 8 8 8 9 7 10 9 10 11 11 9
4 5 5 6 7 8 7 7 7 7 7 7 7 7 7 6 7 6 5 7 7 6 7 7 7 9 9 10 9 10 9 10 11 11 11 11 11 11 11 11 11 12 12 12 12 12 13 14 14 12 12 13 14 13 12 14 12 12 14 13 12 10 11 11 11 12 12 14 12 13 7 9 7 8 7 8 10 9 8 8 6 9 10 9 10
5 5 6 6 7 7 7 7 7 7 7 7 7 6 6 6 6 7 6 6 6 7 7 7 7 8 9 9 9 10 10 10 11 11 11 11 11 11 12 11 12 11 11 12 12 12 13 13 14 13 14 14 14 14 13 13 12 14 15 14 12 11 12 12 11 12 12 13 12 13 11 9 9 11 7 7 8 10 11 8 10 10 8 11 11
6 7 7 7 6 7 7 6 6 7 6 6 6 7 7 7 7 6 5 6 7 7 8 8 8 7 8 8 9 8 9 10 11 11 11 11 11 11 11 11 12 12 12 12 12 13 13 14 14 14 15 15 15 14 14 13 12 13 14 12 12 13 13 12 11 12 12 12 13 12 10 11 8 9 4 5 9 10 10 11 14 12 11 10 12
7 7 7 7 7 7 7 6 6 6 6 6 7 7 7 6 6 6 6 7 7 7 7 8 8 9 8 8 8 8 9 10 10 10 10 10 10 11 11 12 12 12 12 12 13 13 13 13 14 14 16 18 21 19 17 16 12 14 14 12 13 13 13 12 12 12 12 12 13 10 11 11 11 9 8 10 14 16 9 8 13 12 10 8 10
7 8 7 7 7 7 8 7 7 7 7 7 7 7 7 7 7 6 7 7 7 7 7 8 8 8 9 9 8 8 9 9 13 17 14 10 9 9 9 10 11 11 12 13 13 13 14 13 14 19 21 21 22 23 23 23 23 19 15 12 14 13 14 14 13 13 12 14 14 12 13 14 13 12 13 13 12 8 8 9 13 13 7 10 9
7 7 8 7 7 7 7 7 8 8 7 7 7 7 8 8 7 7 8 7 8 8 8 8 8 8 8 8 9 9 9 10 16 16 16 17 13 11 11 11 10 11 11 13 13 14 13 14 13 15 17 19 20 24 24 25 26 26 27 23 18 16 14 15 15 14 14 15 14 13 14 16 15 12 13 13 10 12 12 11 12 9 10 10 13
7 8 8 8 8 8 8 8 8 9 8 9 9 8 8 8 8 8 8 9 9 7 8 8 8 8 8 7 8 9 10 13 17 17 17 17 15 12 10 10 11 11 12 13 13 13 14 14 12 10 11 14 15 16 20 24 26 26 27 26 25 24 22 19 17 14 15 15 15 16 14 16 15 12 12 11 13 11 12 11 12 12 12 12 12
7 7 7 7 8 8 8 9 9 10 10 10 10 9 9 9 9 9 10 9 8 8 9 9 9 8 8 8 9 10 10 14 17 17 17 17 17 15 10 10 11 12 13 14 14 14 13 13 13 11 11 17 16 15 15 16 20 25 26 26 26 27 27 28 26 20 14 16 17 17 17 15 15 14 14 14 11 12 10 11 12 12 13 13 14
7 7 7 8 8 8 9 10 10 10 10 10 10 11 11 11 10 9 8 9 8 9 8 9 9 8 8 8 9 9 10 13 16 17 17 17 17 15 11 12 12 13 14 14 13 14 14 13 13 13 12 13 13 13 14 15 14 14 16 17 18 22 26 29 28 29 24 18 17 19 19 13 17 15 14 13 12 14 13 14 12 13 14 17 16
8 8 10 10 10 11 11 11 11 11 11 11 11 11 11 11 11 10 10 10 10 11 11 11 11 10 10 9 9 10 10 15 17 18 17 17 18 15 11 11 11 12 12 13 14 14 14 13 14 16 15 13 13 13 14 14 13 14 15 15 16 17 18 20 21 19 19 19 20 21 20 16 18 17 12 12 17 16 15 16 15 15 13 9 8
10 11 12 12 13 13 12 12 12 12 12 11 11 12 12 12 12 11 10 10 9 9 9 8 11 11 11 10 10 11 10 15 17 17 18 17 18 11 10 11 11 11 12 12 13 12 12 13 14 16 16 15 17 19 19 14 13 16 16 16 15 15 17 20 22 23 22 20 20 22 20 20 19 17 15 14 13 12 10 8 5 6 7 10 14
13 13 13 14 14 13 13 13 13 12 12 12 13 13 13 13 12 10 11 10 10 11 10 10 9 10 11 10 11 12 11 13 17 18 18 20 16 11 10 10 10 11 12 12 11 11 11 12 13 14 15 16 17 18 20 17 15 18 17 17 16 15 17 14 18 26 28 29 30 31 31 28 25 24 22 22 16 11 8 8 13 9 10 13 14
13 13 12 13 13 13 13 13 13 13 12 13 13 12 12 11 12 11 11 12 12 12 12 11 10 9 11 11 10 12 12 13 17 18 18 18 16 12 11 10 12 11 12 12 10 11 12 17 17 15 16 17 17 18 19 16 15 18 16 17 18 19 19 13 7 15 26 28 31 33 32 30 28 28 26 24 22 15 13 17 14 10 15 14 15
13 13 13 12 12 12 11 11 12 12 12 12 11 12 12 12 11 11 11 11 12 11 11 11 12 11 10 11 13 13 12 12 14 16 17 17 15 10 10 9 11 12 11 12 10 9 11 11 16 17 16 18 22 20 21 18 16 17 16 15 19 21 20 12 11 15 11 12 18 21 22 26 24 21 22 28 26 22 18 17 11 13 16 15 14
13 12 12 12 12 12 11 11 11 11 12 11 11 11 11 11 11 12 12 10 11 11 11 11 12 11 10 11 11 11 12 12 11 16 17 18 18 13 10 10 12 13 12 11 12 11 9 10 12 15 19 21 21 21 21 22 18 17 16 16 18 23 17 10 14 14 13 15 16 15 18 18 18 18 18 18 19 21 20 17 15 15 16 16 14
13 12 12 12 12 12 11 11 12 11 10 11 11 10 10 10 11 11 12 11 11 11 12 12 12 11 10 10 10 11 10 13 14 16 17 18 19 16 11 12 12 12 14 14 11 12 12 10 9 12 17 19 20 20 20 20 20 17 17 17 18 19 17 14 15 18 15 16 15 14 14 14 15 15 16 17 17 16 17 19 18 17 17 16 15
12 11 12 12 11 11 12 12 10 10 10 11 11 10 10 11 11 12 11 11 12 13 13 12 12 12 10 10 10 11 11 14 13 15 17 18 19 20 13 12 13 13 15 15 14 12 12 12 11 13 17 20 21 21 22 21 22 16 17 22 25 26 21 16 15 14 13 13 13 14 14 15 14 14 15 15 16 16 17 18 20 20 19 17 18
11 11 11 12 11 12 12 13 12 10 11 12 11 11 11 12 13 12 13 14 14 15 14 13 13 13 13 10 9 11 12 12 15 15 18 20 22 22 23 18 19 15 13 16 16 15 12 13 14 18 19 20 22 23 23 24 21 18 23 25 25 26 22 15 15 15 14 14 14 16 17 16 15 16 15 15 15 15 15 17 18 18 19 19 20
11 12 11 11 11 11 12 13 12 11 12 12 10 11 13 13 12 11 13 14 14 15 13 13 13 13 14 13 11 10 12 13 14 18 18 21 22 23 23 23 22 15 14 14 15 16 15 15 17 25 27 27 26 25 25 24 19 23 25 26 26 23 16 14 14 15 15 15 16 17 18 17 16 15 16 14 13 13 14 15 16 18 19 19 20
11 12 12 12 12 11 12 12 13 12 13 11 10 11 11 11 11 11 12 12 13 13 13 12 12 12 14 14 14 13 11 11 13 15 20 20 21 21 21 21 22 23 18 16 16 16 21 30 31 30 28 27 27 26 22 23 26 25 26 27 26 16 16 15 15 14 15 17 17 18 18 18 17 16 14 12 11 11 12 13 14 15 17 17 16
13 13 12 12 12 12 13 13 13 14 14 12 11 10 11 11 11 11 10 10 11 13 14 13 13 13 14 14 16 14 13 12 12 13 12 14 15 17 21 24 26 26 24 21 25 28 28 29 32 31 28 24 18 15 14 16 21 24 25 25 17 15 15 15 15 16 17 18 18 19 18 16 15 14 13 12 12 14 13 13 13 15 14 15 14
12 12 14 13 13 13 14 13 13 13 13 13 12 11 11 10 11 11 10 11 13 13 15 13 14 13 15 15 14 15 16 13 12 11 10 10 11 15 17 17 21 21 16 14 17 18 22 24 24 29 28 33 30 25 22 22 20 17 14 14 14 14 15 15 16 17 17 17 18 17 17 16 13 12 14 14 14 14 13 13 13 15 14 14 15
12 12 14 12 12 13 12 15 16 14 14 13 13 13 11 10 10 11 12 12 13 15 15 14 14 14 14 15 16 17 15 12 10 10 11 14 16 16 16 14 13 14 17 18 17 18 20 24 27 22 20 19 19 16 15 14 14 13 13 13 13 13 17 20 20 17 17 17 17 15 15 14 15 15 15 14 15 15 13 13 14 16 14 12 13
12 12 13 13 13 12 12 13 14 13 13 13 12 12 12 13 13 13 9 8 11 15 16 17 14 12 11 14 17 17 16 15 11 15 20 24 22 19 16 18 19 19 20 25 22 19 17 19 18 20 19 19 18 18 17 16 16 15 15 14 12 12 12 12 14 16 17 16 16 16 17 15 16 15 15 14 15 16 13 14 15 16 14 14 17
12 12 12 12 13 13 14 14 12 12 13 14 14 14 13 15 16 14 16 19 20 23 21 18 19 19 17 15 11 15 17 21 34 41 36 32 31 33 33 35 33 29 28 32 24 18 18 17 18 18 18 18 18 17 18 17 16 16 15 15 14 12 12 13 14 15 15 15 15 16 16 16 16 15 15 16 16 15 15 16 15 15 15 16 17
12 12 13 12 15 16 14 12 11 12 12 12 14 15 16 15 16 22 19 20 24 29 30 31 31 27 20 20 22 30 34 36 37 36 37 36 37 36 38 36 37 36 36 26 20 17 17 17 16 17 17 17 17 16 17 17 17 16 16 15 14 14 14 14 14 13 14 14 15 16 16 16 16 16 16 16 16 15 13 14 15 15 16 17 18
13 13 13 14 16 15 11 12 13 13 13 13 14 14 15 17 18 14 14 17 17 26 32 32 28 28 33 30 25 20 27 35 41 38 37 39 41 41 40 40 37 37 36 35 22 17 16 17 17 16 16 17 17 17 16 17 17 17 16 16 15 14 14 14 14 14 14 15 16 16 15 16 16 16 16 16 16 15 15 15 15 16 17 16 18
14 14 14 15 14 15 13 12 12 12 14 14 12 12 13 14 15 18 17 15 17 20 22 23 28 33 34 31 30 28 32 36 40 40 40 39 39 39 41 42 40 39 38 22 14 16 15 16 14 13 12 14 15 15 17 17 17 16 16 16 16 15 14 15 15 15 15 16 16 16 15 16 16 16 16 16 16 16 16 16 15 15 16 16 17
14 13 13 15 14 13 12 12 12 13 13 12 12 13 13 12 14 15 18 19 18 13 8 11 20 26 25 29 37 39 36 33 33 33 35 39 41 39 37 31 35 34 27 19 16 15 15 15 16 17 18 18 19 19 19 17 15 14 17 18 18 17 17 15 15 14 14 15 16 16 16 16 15 15 15 16 16 16 16 16 15 15 15 17 18
14 17 23 18 12 12 13 13 13 14 14 13 13 12 12 13 15 15 14 16 18 18 19 17 16 16 20 24 31 35 34 32 32 35 37 36 39 43 43 25 20 16 17 13 14 16 18 17 17 16 14 17 14 17 17 19 17 18 17 18 17 17 17 18 18 17 16 15 16 16 16 16 16 16 16 16 15 15 16 16 16 16 16 16 17
13 12 12 14 13 14 12 12 13 13 13 13 14 15 15 15 16 16 17 16 15 16 15 13 15 21 33 31 29 26 30 38 41 42 39 40 37 36 22 20 18 17 15 16 15 16 16 18 18 18 16 16 17 17 19 20 19 19 19 19 20 19 19 20 19 18 19 19 17 17 17 16 16 16 16 17 19 19 17 17 17 16 17 16 16
12 12 12 13 13 11 12 13 13 15 16 17 15 15 16 17 17 16 15 13 14 15 13 15 17 20 20 14 20 29 31 30 33 33 33 32 35 22 11 13 14 18 17 20 19 19 15 14 15 16 15 18 19 19 18 19 18 19 18 15 15 16 14 15 17 18 18 18 19 19 19 16 16 16 16 17 16 17 18 18 17 17 16 18 17
11 11 12 14 13 12 13 13 14 19 15 15 14 14 15 15 16 16 16 16 18 18 17 17 18 16 17 20 28 22 26 30 31 23 18 19 15 14 18 19 19 18 17 16 16 18 17 14 12 16 15 17 17 16 14 18 17 18 19 19 19 19 23 20 20 18 18 16 16 16 19 18 16 15 15 17 17 17 17 17 17 17 17 18 16
10 18 23 24 18 14 14 15 16 16 16 15 14 15 17 16 17 16 15 15 15 15 15 13 13 16 18 18 19 21 26 22 20 19 19 17 18 16 16 16 14 15 18 19 19 19 21 22 21 22 20 19 20 20 17 16 15 16 16 17 16 14 15 13 15 14 15 15 16 15 15 16 17 18 18 17 16 17 18 18 17 17 17 15 14
13 12 15 22 15 16 16 16 15 14 15 15 15 15 15 16 16 16 16 15 15 15 14 17 19 17 18 19 19 21 22 23 22 21 20 19 17 16 14 17 19 21 23 23 21 19 19 18 21 21 21 22 20 18 19 21 20 23 22 21 18 17 18 15 15 14 14 13 15 15 15 17 16 15 16 19 20 18 17 17 17 16 16 15 14
11 12 14 16 19 16 14 14 13 13 13 14 14 14 14 16 15 16 15 16 17 18 17 17 16 16 17 24 34 32 22 20 20 20 19 20 19 19 18 15 15 17 17 17 17 15 16 17 18 18 18 16 18 22 23 22 23 20 16 17 17 18 18 15 15 15 16 16 16 16 17 17 16 16 17 17 20 21 18 17 16 15 14 15 15
12 13 14 13 15 13 13 13 13 15 13 14 13 13 14 14 15 15 17 17 17 17 16 15 15 16 21 34 31 36 23 16 17 18 18 18 17 16 16 15 14 13 14 14 16 18 17 18 18 18 21 21 18 17 16 18 18 19 20 21 19 16 15 15 16 16 17 15 18 17 15 14 17 18 18 18 16 16 18 17 15 14 13 11 8
13 13 13 13 13 13 13 13 13 12 12 13 13 14 16 15 14 15 14 15 15 16 15 15 15 16 18 26 28 29 16 14 15 17 15 16 16 16 15 15 14 14 13 13 13 14 15 16 17 17 15 17 19 21 21 18 19 16 18 23 22 19 17 15 16 15 16 16 18 20 19 19 20 17 16 17 16 16 15 15 14 12 8 10 11
11 12 13 13 13 12 12 12 12 12 12 16 17 15 15 13 13 12 12 13 13 14 14 14 14 15 14 17 18 16 13 13 13 13 15 16 15 15 15 15 14 15 15 15 13 13 13 14 16 15 18 17 17 19 17 16 16 16 19 17 18 21 21 19 17 18 19 19 21 21 19 20 17 18 17 16 15 14 14 14 11 5 1 1 5
10 10 11 11 11 11 11 10 11 12 15 14 11 11 13 11 11 11 11 12 14 14 12 13 13 14 15 13 13 14 14 13 15 15 14 13 12 14 14 14 15 17 16 15 13 14 15 14 13 16 17 16 16 17 17 16 17 17 16 15 18 19 19 16 17 16 18 22 22 24 21 17 16 15 14 15 15 15 13 12 9 5 5 6 8
10 10 11 10 11 11 11 11 12 11 10 10 11 11 10 10 10 10 12 12 13 13 12 12 12 12 12 13 13 14 14 14 13 14 13 13 14 14 14 15 16 17 15 15 15 16 14 13 15 14 16 16 17 16 15 15 16 15 15 15 16 17 17 16 17 19 18 18 18 18 17 15 16 17 18 19 17 14 13 9 6 7 8 9 8
10 9 10 9 10 11 11 12 10 11 11 10 10 11 10 11 11 12 13 14 15 13 12 12 12 12 12 12 12 13 13 13 12 12 11 12 12 13 13 14 16 15 15 15 15 14 15 16 14 15 15 15 16 16 16 13 13 14 13 14 15 17 14 15 16 17 18 20 16 17 18 18 18 16 17 17 15 11 8 6 7 8 7 8 10
9 9 9 9 9 9 10 10 11 13 11 11 10 11 11 12 11 12 11 12 12 12 12 12 12 12 11 11 12 12 12 12 13 12 12 13 13 13 14 14 15 14 15 16 15 15 14 14 14 13 14 15 14 15 13 14 12 13 13 13 12 14 22 26 16 17 16 16 17 17 18 18 16 17 16 15 11 8 7 7 7 7 8 9 9
8 9 9 9 9 9 10 11 11 11 11 10 11 12 11 11 11 11 11 11 11 11 11 12 12 12 12 12 12 12 12 13 11 13 12 11 12 12 13 15 16 16 16 14 15 14 14 13 12 13 14 14 14 14 13 13 14 13 15 12 19 35 33 30 20 17 21 19 16 17 17 17 18 16 11 8 6 6 7 8 9 10 9 9 10
8 8 9 10 10 10 10 9 9 10 10 10 10 10 11 11 11 11 12 12 11 11 10 11 11 12 12 12 12 12 12 12 13 12 12 12 12 12 12 12 14 15 14 15 14 14 13 12 13 13 13 13 13 13 13 12 13 14 13 18 32 33 31 30 25 23 16 9 10 10 10 8 5 2 2 3 6 8 9 10 10 10 10 12 11
9 9 9 9 9 9 10 9 10 9 10 10 10 10 11 11 11 11 12 12 12 12 12 11 12 12 12 12 12 12 13 12 12 11 11 12 12 13 14 14 15 15 15 16 15 13 14 14 12 13 13 14 14 14 12 13 13 16 24 33 33 32 31 28 19 21 24 16 8 7 5 5 3 3 4 4 5 7 9 11 11 11 11 11 12
Wind_Direction
287 277 277 271 267 263 261 256 252 247 247 234 236 241 242 237 237 237 244 240 231 235 231 230 227 226 227 226 228 230 229 232 224 223 223 228 227 228 231 225 230 237 233 236 228 226 227 232 233 230 219 219 224 223 224 223 220 222 216 216 223 214 208 222 238 260 261 215 242 245 241 215 242 207 216 216 217 216 214 218 215 216 220 225 229
289 288 287 280 275 275 271 262 255 249 243 241 240 244 243 240 239 242 237 245 227 236 234 233 231 229 229 232 230 230 229 229 225 218 225 230 234 227 231 228 233 238 231 238 233 231 230 233 237 232 221 226 225 225 221 222 220 221 222 215 223 222 209 218 237 242 266 235 238 236 246 216 252 191 209 213 224 211 218 220 219 214 217 221 226
289 289 292 297 291 287 286 281 274 266 256 253 249 250 252 254 248 242 247 251 243 236 241 238 236 231 234 236 235 236 233 233 228 222 226 227 231 232 227 228 232 236 235 236 235 232 235 235 238 231 224 228 230 230 225 226 221 222 226 218 224 224 217 216 226 242 251 261 227 236 229 228 227 235 218 219 218 204 215 219 217 218 221 220 225
298 304 302 298 294 296 292 286 285 281 275 271 266 263 260 257 245 242 247 249 250 246 240 245 240 236 237 240 236 238 239 239 237 230 230 228 230 234 230 227 230 234 237 240 237 231 233 237 239 231 226 229 231 229 228 227 226 226 227 225 222 226 222 218 223 234 246 264 241 226 221 230 238 239 227 220 219 220 218 224 212 219 221 221 224
315 309 306 304 303 300 295 293 289 286 280 280 277 278 275 269 261 251 253 255 252 253 253 241 243 239 240 241 242 240 240 240 241 240 236 233 233 235 234 231 231 233 235 237 237 233 235 236 240 232 227 232 235 231 226 225 226 226 229 227 224 224 224 221 227 227 241 246 259 240 229 230 236 233 216 220 234 236 229 226 217 218 223 224 223
322 317 311 309 306 305 302 301 297 292 291 290 285 283 282 277 271 265 251 257 260 252 250 249 239 243 243 246 246 246 245 242 242 243 241 239 237 238 239 237 237 237 237 237 235 233 235 237 239 234 230 229 235 234 229 228 225 226 229 229 225 223 225 228 226 230 233 243 247 261 227 236 243 238 219 213 223 238 244 242 242 233 226 232 229
338 333 317 307 304 305 306 303 299 298 297 292 294 298 295 289 283 277 270 261 263 264 257 254 249 244 248 248 247 247 248 246 246 244 243 240 239 240 241 241 241 240 241 241 238 236 236 238 238 233 233 232 235 234 232 229 227 227 226 227 222 222 224 227 226 228 230 239 245 245 253 237 230 245 226 217 224 224 234 241 247 237 227 224 237
340 327 319 315 313 310 307 301 301 298 298 298 297 295 294 293 286 281 282 278 271 265 264 261 260 252 253 252 252 250 250 252 251 248 245 244 243 242 241 243 244 243 244 243 241 241 239 239 238 235 233 233 233 235 230 233 226 233 229 224 219 219 223 224 226 226 230 234 237 242 237 245 238 246 224 208 238 246 228 227 240 241 230 224 228
327 320 320 321 318 315 313 311 306 306 305 304 303 299 296 293 291 288 284 277 271 265 265 266 270 267 264 260 261 255 253 253 252 251 249 249 245 246 244 243 243 247 246 246 244 244 244 241 240 238 234 235 232 232 230 225 226 233 231 219 220 217 221 222 224 223 231 232 241 235 243 239 237 231 225 218 222 229 223 216 242 243 241 235 239
326 324 324 321 319 319 317 315 314 314 316 310 305 304 303 301 298 296 290 281 277 275 275 271 266 266 269 268 263 261 259 258 257 253 249 250 251 249 249 246 246 247 250 251 251 247 246 244 243 238 238 237 236 236 235 232 230 229 232 217 219 217 219 220 221 221 224 229 232 227 233 237 233 222 227 226 231 241 234 215 233 242 241 249 256
328 327 325 323 323 321 323 318 320 320 315 314 311 312 309 308 307 302 298 293 288 286 281 280 277 272 269 268 270 267 265 265 264 263 261 255 254 258 255 257 252 252 251 252 254 255 254 249 249 245 242 242 241 239 237 237 236 235 235 230 221 215 219 221 225 217 220 228 230 225 230 238 235 222 224 231 221 221 224 223 232 235 229 234 248
331 330 325 327 330 330 327 324 324 320 322 319 317 313 313 313 312 307 305 303 299 297 295 285 284 283 279 275 271 272 272 271 270 271 269 267 261 259 259 259 257 257 257 256 256 255 257 257 253 250 244 241 242 242 242 241 241 240 239 237 234 227 222 220 223 223 222 229 232 227 225 232 236 220 224 219 225 221 222 222 223 223 231 231 239
333 332 330 334 336 336 338 339 334 332 331 328 325 326 324 321 318 318 313 306 305 306 300 299 294 290 284 282 279 276 277 277 279 278 276 273 270 265 263 256 257 256 256 257 257 257 257 258 260 253 251 246 242 242 244 245 242 242 244 242 239 235 233 230 228 228 224 228 233 235 224 227 233 229 213 218 210 220 216 222 223 224 227 231 237
337 335 341 344 346 346 345 341 337 333 332 331 331 330 329 326 323 319 315 315 314 310 307 303 300 296 291 286 284 282 279 285 284 283 282 279 275 271 265 262 259 258 256 255 257 257 256 259 262 259 254 251 247 244 244 244 245 242 241 238 239 239 237 237 234 232 231 232 234 238 236 212 232 231 216 206 203 215 211 222 216 222 224 228 231
346 353 353 351 351 349 347 342 338 336 335 334 332 329 328 327 328 328 326 323 322 320 319 317 310 305 301 295 292 290 288 290 290 289 289 285 281 275 270 267 265 263 260 258 259 260 262 261 261 263 263 257 254 247 248 248 247 248 245 241 236 237 234 233 232 232 232 233 237 241 243 229 232 235 222 208 213 216 211 216 212 217 228 247 268
4 3 357 355 352 347 345 342 340 338 335 336 335 332 332 331 328 327 325 319 313 309 306 305 303 305 303 303 301 295 293 292 293 294 294 293 290 284 276 270 269 267 265 263 261 261 261 259 261 264 264 264 261 256 255 258 258 255 252 250 246 240 237 233 229 231 233 234 235 239 241 237 233 232 226 220 221 221 224 230 214 205 215 234 240
10 4 358 351 346 344 343 340 338 337 337 337 336 333 332 331 328 328 322 319 317 316 311 308 307 305 306 305 302 298 297 297 297 296 296 295 296 289 283 278 272 270 270 267 265 263 260 257 258 263 264 263 262 260 260 257 259 260 258 258 256 252 249 240 228 234 236 237 241 244 245 246 243 241 236 227 221 210 203 214 222 189 206 231 239
4 356 349 344 341 340 339 338 336 335 336 335 333 330 329 327 327 327 325 322 321 318 315 313 311 308 305 303 300 299 299 298 297 296 295 293 290 289 286 284 280 278 277 272 267 266 260 255 254 258 263 265 265 260 260 257 258 261 261 262 264 261 259 249 223 236 234 235 239 243 246 247 246 245 243 238 227 208 201 219 214 183 219 223 234
357 350 343 338 335 335 333 333 332 332 331 331 330 330 330 328 322 322 321 319 315 315 314 313 313 311 309 303 302 298 297 300 299 297 298 299 299 294 290 286 287 284 282 283 275 262 268 259 254 254 258 265 266 261 259 255 256 260 260 262 261 262 259 257 244 247 237 231 240 244 248 248 246 243 242 238 230 222 218 224 205 199 218 222 226
351 344 338 335 334 332 331 329 329 329 328 327 331 329 324 322 324 322 319 317 314 314 312 311 309 308 308 306 306 305 304 303 303 302 303 304 305 304 299 297 295 294 291 288 292 287 271 271 266 259 261 264 265 263 259 252 252 257 258 256 258 260 266 264 250 251 250 240 240 235 238 240 240 238 240 239 233 227 227 225 217 209 218 223 217
349 343 337 334 332 331 330 328 327 326 328 330 326 323 323 324 322 322 319 316 314 313 313 311 308 307 308 307 304 305 304 304 306 304 303 303 303 304 302 298 296 295 297 295 290 292 293 283 277 272 269 269 270 269 265 259 251 252 254 254 253 262 270 266 261 254 253 253 250 245 242 238 236 234 233 232 229 225 224 226 223 217 215 219 217
345 341 337 334 332 331 331 329 327 328 333 330 327 326 329 328 325 323 319 319 320 318 318 315 314 313 313 312 310 307 307 304 304 307 306 306 305 303 300 294 292 295 297 295 293 290 286 289 288 280 278 277 277 274 271 268 264 259 256 256 260 262 263 263 264 262 255 253 253 252 249 243 239 234 232 230 227 222 220 221 223 221 220 220 217
343 341 338 336 337 337 337 335 331 334 331 327 324 329 334 332 329 329 328 329 327 325 324 323 320 318 316 315 317 316 315 314 310 311 313 314 311 308 303 300 298 297 292 292 294 294 291 289 287 285 281 278 277 276 274 269 266 261 262 263 263 262 263 261 261 260 258 255 253 252 251 248 243 240 234 232 229 222 222 222 223 223 225 227 227
347 345 342 339 338 341 340 336 334 333 330 325 327 334 336 334 332 333 334 330 328 324 324 322 318 316 317 316 317 317 316 312 311 311 310 309 308 305 303 304 304 302 297 294 296 296 299 295 292 291 290 287 283 279 277 273 266 263 262 262 263 265 263 261 257 255 255 254 252 251 251 249 247 244 241 235 231 223 222 223 223 222 225 229 230
350 346 343 339 339 339 337 337 336 333 330 326 328 332 329 331 328 330 329 325 323 321 318 318 315 316 317 315 314 313 312 311 308 309 308 306 304 304 304 305 308 309 305 298 294 295 293 294 294 292 290 287 284 281 278 272 268 264 262 261 261 259 257 254 254 252 250 248 248 250 251 250 246 246 247 242 232 225 222 224 224 225 227 231 234
352 346 342 338 339 338 338 337 337 334 331 329 325 324 324 324 324 324 324 321 321 318 319 317 317 317 314 313 311 310 311 307 303 302 301 300 300 306 311 310 305 299 295 292 291 292 293 294 294 294 293 290 287 282 277 274 268 263 259 255 253 249 246 248 247 246 246 247 247 246 248 251 248 245 243 239 231 226 221 221 220 226 220 223 228
349 345 345 341 340 340 339 336 333 331 330 326 322 320 322 322 321 320 321 322 321 318 314 313 312 312 311 309 308 309 306 306 305 303 305 310 314 312 308 302 297 295 296 300 301 299 297 296 294 292 291 290 288 282 277 275 274 269 262 253 248 244 243 241 241 243 244 246 247 247 249 249 252 247 239 233 232 232 222 220 221 227 217 217 221
348 344 341 339 337 335 334 330 331 329 327 325 322 318 316 317 316 316 323 327 324 316 311 308 310 309 310 310 308 305 299 297 303 312 317 314 308 307 302 302 312 314 306 301 296 297 295 292 291 290 291 290 288 289 284 278 269 267 263 258 251 244 242 241 242 243 244 244 247 250 251 248 244 241 241 235 234 234 223 217 218 226 218 209 216
346 344 341 339 335 334 330 330 328 324 321 321 318 319 320 319 317 309 305 314 313 310 312 308 305 304 303 305 305 302 307 307 308 312 306 305 303 305 310 311 305 299 289 289 295 293 291 290 286 287 285 285 285 281 280 279 278 273 268 264 258 252 246 242 242 241 242 243 244 243 246 244 245 243 242 239 235 234 221 222 219 224 218 209 217
344 345 341 337 331 331 331 328 325 323 324 323 323 316 308 306 307 306 308 308 302 301 305 305 304 306 304 296 300 310 314 311 310 310 308 305 306 306 303 301 298 295 294 295 295 294 291 285 282 282 280 280 280 279 279 276 276 276 273 269 265 259 253 248 244 248 245 245 243 243 244 243 245 242 240 239 240 235 224 216 221 218 220 214 220
345 342 340 336 333 329 327 322 322 321 321 322 317 315 312 306 297 298 293 293 303 308 307 303 301 304 315 318 313 307 305 305 306 307 311 315 313 310 306 301 299 298 298 298 292 283 281 276 275 276 275 272 272 273 274 276 274 275 274 274 269 263 259 255 253 249 249 248 246 245 245 244 244 241 240 239 239 237 233 221 221 218 219 218 221
345 339 335 331 329 327 321 319 317 319 317 316 314 314 311 310 308 297 291 294 295 303 305 305 313 322 317 309 308 310 314 314 312 311 311 313 310 308 308 306 301 298 295 293 288 282 276 277 275 271 271 270 271 275 276 275 273 271 272 271 269 266 262 260 257 253 250 248 249 247 245 244 245 243 242 241 238 239 233 227 217 219 220 220 222
340 334 329 327 322 320 318 317 317 316 316 315 313 310 309 312 311 314 313 302 289 294 300 312 317 314 310 309 312 315 314 310 309 311 311 310 313 310 307 306 305 303 301 295 276 277 271 272 272 280 284 290 291 290 288 284 281 276 270 270 271 270 265 261 256 255 252 250 248 248 244 243 245 247 245 242 239 238 234 233 224 218 217 219 223
334 328 325 323 321 318 320 319 317 316 314 312 310 311 309 309 308 311 312 314 315 309 290 294 306 305 310 321 320 313 307 307 309 311 313 310 309 317 324 323 323 321 324 323 322 315 314 311 309 304 295 288 285 281 278 278 281 284 284 278 271 268 266 264 261 258 256 253 250 247 245 245 243 245 245 245 241 239 237 235 230 223 217 217 221
330 325 325 326 322 322 321 319 318 316 317 315 313 311 311 313 313 312 312 316 318 316 318 318 315 315 322 316 309 307 307 311 320 322 318 322 326 322 319 318 320 322 320 306 306 305 303 300 297 295 295 296 298 300 299 299 295 293 291 293 293 293 289 281 269 263 258 255 252 249 245 245 244 240 243 245 244 241 237 236 233 228 226 220 221
328 325 325 328 328 324 320 318 318 317 317 316 317 316 318 319 320 319 318 313 309 310 309 312 319 324 319 311 306 311 331 334 324 317 319 324 324 326 321 315 311 315 321 317 309 308 304 298 296 299 308 314 322 323 327 323 323 321 323 326 321 318 315 309 303 296 285 271 256 248 247 245 242 243 242 241 242 242 242 238 236 232 228 227 221
328 327 329 328 325 317 315 317 318 320 321 320 320 321 322 321 317 313 309 309 310 312 314 321 321 314 312 312 333 339 332 319 319 320 318 315 315 313 309 321 327 322 316 311 302 301 311 325 330 329 328 326 323 320 318 315 315 315 312 312 313 312 307 307 309 310 307 303 301 288 266 249 243 241 239 241 240 240 240 240 239 236 230 227 223
325 328 329 327 321 320 321 324 326 325 324 321 321 320 319 317 315 315 315 317 320 321 318 315 314 311 324 331 334 330 323 324 322 317 318 321 333 343 336 324 311 300 298 312 333 333 323 322 330 327 325 321 314 311 309 305 303 301 302 301 298 292 299 304 307 310 308 303 301 305 303 292 271 252 240 239 239 239 241 239 239 238 234 228 224
330 329 328 329 330 330 329 326 323 323 322 322 322 322 319 319 320 319 320 320 317 313 310 313 322 328 328 326 323 324 326 328 330 331 331 333 329 323 312 305 311 330 335 328 327 334 329 322 325 327 323 319 316 306 299 299 306 308 307 304 302 303 305 304 302 301 302 305 306 307 307 304 302 295 283 263 243 239 240 240 237 235 234 230 220
328 326 330 335 331 328 325 321 320 321 319 321 322 322 323 322 321 320 317 316 315 320 328 330 326 323 322 322 327 331 329 327 327 325 327 327 325 326 329 334 336 333 331 329 325 324 331 329 320 316 320 317 309 317 326 322 316 309 306 303 301 298 296 293 293 296 296 297 296 296 296 299 301 301 299 298 282 257 243 239 237 232 232 229 223
329 332 331 330 326 323 321 320 320 320 323 323 322 321 319 319 318 318 321 324 326 325 322 319 317 318 321 324 325 327 327 324 323 324 322 324 326 327 326 327 329 321 311 315 323 321 314 314 310 302 297 305 321 319 311 306 301 294 289 295 296 293 290 289 291 293 294 294 293 292 292 292 294 296 299 298 299 291 270 249 236 231 227 226 220
335 332 327 325 326 324 321 322 321 325 324 321 321 321 322 325 325 327 326 323 320 319 318 317 318 319 319 323 325 327 325 321 320 320 322 322 320 320 321 318 317 319 320 314 312 310 308 307 311 315 314 307 299 296 301 301 307 312 311 304 299 298 299 300 299 294 292 290 291 291 292 292 292 291 288 287 285 288 291 281 261 239 227 211 187
332 325 323 322 323 322 323 322 324 323 324 324 324 326 325 324 324 322 319 317 317 317 318 317 317 319 320 323 324 326 322 318 321 321 318 320 319 318 317 317 316 312 311 311 309 311 310 306 303 301 302 304 306 303 301 299 297 295 297 298 292 289 289 293 294 296 296 295 294 292 292 292 292 288 286 282 277 281 283 288 291 281 250 175 165
324 321 320 320 319 317 320 320 323 323 323 324 324 323 322 322 318 315 313 314 315 317 317 317 318 320 318 321 323 323 318 319 319 320 321 320 317 317 317 317 316 317 317 315 310 306 304 305 305 302 301 297 296 296 290 290 293 292 291 294 302 306 305 302 300 298 297 297 295 292 290 286 281 283 277 272 276 277 278 273 266 249 260 110 134
317 318 319 318 318 319 318 319 321 320 322 320 315 316 319 317 313 313 314 315 317 318 316 317 319 317 319 318 319 320 320 319 321 321 317 316 314 315 316 317 318 317 315 313 311 311 307 304 298 301 304 301 301 301 301 300 302 300 299 297 293 294 292 290 288 288 288 286 286 283 278 274 277 277 277 284 283 275 268 257 237 188 160 158 157
319 318 317 316 316 316 319 318 320 318 315 317 317 316 316 316 313 313 317 317 318 318 318 317 315 316 316 315 317 319 318 319 318 319 318 318 317 317 317 317 315 314 313 312 312 311 308 303 307 303 302 302 303 300 299 297 296 296 294 293 291 288 286 284 286 284 279 277 277 277 282 287 281 278 274 274 267 258 254 237 200 195 185 169 158
318 313 315 312 315 314 315 315 315 316 319 316 316 316 316 318 316 317 317 319 320 319 317 316 317 317 317 316 317 317 317 317 315 318 315 314 315 315 315 314 315 313 313 311 310 307 306 308 306 305 303 300 302 302 302 301 299 298 298 298 297 295 290 288 287 285 285 282 279 275 274 271 268 267 263 257 255 240 212 193 179 159 147 144 140
314 313 311 312 313 314 314 315 315 318 316 316 317 319 317 317 317 317 315 317 319 318 318 316 316 313 313 314 315 314 315 314 315 313 316 317 316 314 314 314 314 314 313 312 311 310 308 308 308 309 312 314 312 315 312 312 308 308 304 305 298 299 304 301 285 281 273 271 266 266 263 263 260 261 259 250 228 195 172 152 132 119 123 124 127
314 314 314 316 315 317 314 316 317 318 317 318 318 318 317 317 315 315 313 314 316 316 316 316 315 315 316 315 314 312 313 314 314 316 316 314 313 314 315 315 316 315 316 312 312 313 313 314 317 323 325 324 322 321 322 322 324 318 319 311 321 325 323 319 307 293 285 276 269 265 263 262 261 256 240 209 181 155 138 126 123 122 118 118 123
312 313 312 314 314 313 312 313 312 313 316 316 317 315 317 315 315 314 314 314 314 315 315 315 313 315 316 315 316 315 315 317 317 317 316 315 316 313 313 313 314 317 315 317 318 320 319 321 326 327 326 324 322 321 322 321 322 326 327 333 338 339 338 338 334 328 326 309 290 275 273 263 252 202 158 143 138 130 125 125 119 119 121 124 123
310 312 310 310 308 310 313 314 316 315 317 316 317 317 317 315 314 313 313 314 314 315 315 315 314 315 315 314 314 316 316 314 313 313 314 316 317 318 318 318 318 318 319 321 323 325 326 325 326 330 329 328 327 328 328 330 328 335 341 345 348 348 349 352 350 350 350 347 336 334 350 360 23 55 85 96 111 109 117 115 114 114 119 120 122